[[{"header":{"parameterUnit":"m.s-1","parameterCategory":1,"la1":30.2991,"la2":30.254,"lo1":-89.0895,"lo2":-89.0444,"dy":0.0017,"dx":0.0017,"nx":28,"ny":28,"refTime":"2024-04-28T09:00:00:Z","depth":0,"parameterNumber":2,"parameterNumberName":"U-component_of_WINDS"},"data":[0,0,0,0,0,0,0,0,0,0,0,0,0,0,0,0,0,0,0,0,0,0,0,0,0,0,0,0,0,0,0,0,0,0,0,0,0,0,0,0,0,0,0,0,0,0,0,0,0,0,0,0,0,0,0,0,0,0,-6.6005,-6.6006,0,-6.6033,-6.6034,-6.6034,-6.5937,-6.5934,-6.5931,-6.5928,-6.5955,-6.5958,-6.5962,0,0,0,0,0,0,0,0,0,0,0,0,0,-6.5865,-6.5868,-6.6005,-6.6006,-6.6006,-6.6033,-6.6034,-6.6034,-6.5937,-6.5934,-6.593,-6.5927,-6.5954,-6.5958,-6.5962,0,0,0,0,0,0,0,0,0,0,0,0,0,-6.5913,-6.5869,-6.6005,-6.5961,-6.5957,-6.6033,-6.6034,-6.6034,-6.5938,-6.5934,-6.5929,-6.5925,-6.5952,-6.5957,-6.5962,-6.6082,0,0,-6.5978,-6.598,0,0,0,0,0,0,0,0,-6.591,-6.5918,-6.5967,-6.5964,-6.596,-6.5977,-6.5994,-6.605,-6.5939,-6.5945,-6.5928,-6.5923,-6.5966,-6.5969,-6.5984,-6.6083,-6.6084,-6.5979,-6.5982,-6.5984,-6.5985,0,0,0,0,0,0,0,-6.5907,-6.5916,-6.6016,-6.5968,-6.5964,-6.5939,-6.5941,-6.6004,-6.598,-6.5944,-6.5937,-6.5942,-6.5963,-6.598,-6.5984,-6.6084,-6.5978,-6.5983,-6.5986,-6.5988,-6.628,-6.6284,0,0,0,0,0,0,-6.591,-6.5914,-6.6015,-6.6017,-6.5924,-6.5945,-6.5947,-6.5976,-6.5979,-6.5975,-6.5946,-6.5938,-6.5973,-6.5978,-6.5985,-6.6121,-6.5984,-6.5989,-6.5992,-6.6275,-6.6281,-6.6286,0,0,0,0,0,0,-6.5907,-6.592,-6.6014,-6.5964,-6.5974,-6.5952,-6.5985,-6.5979,-6.5995,-6.598,-6.5975,-6.5968,-6.597,-6.5978,-6.6058,-6.6121,-6.5991,-6.5996,-6.6269,-6.6277,-6.6283,-6.6398,0,0,0,0,0,0,-6.5904,-6.5919,-6.5965,-6.5966,-6.5977,-6.6088,-6.5989,-6.5983,-6.6005,-6.5994,-6.5999,-6.5995,-6.5967,-6.6051,-6.6063,-6.6126,-6.6,-6.6264,-6.6273,-6.6281,-6.6388,-6.6408,-6.6424,0,0,0,0,0,-6.5899,-6.5996,-6.5968,-6.598,-6.6034,-6.6092,-6.6098,-6.6064,-6.601,-6.6055,-6.6045,-6.5995,-6.6114,-6.606,-6.6073,-6.6138,-6.6259,-6.627,-6.628,-6.638,-6.6404,-6.6424,0,0,0,0,0,0,-6.6002,-6.5995,-6.5964,-6.6064,-6.6079,-6.6075,-6.613,-6.6091,-6.6121,-6.6109,-6.6066,-6.6068,-6.6155,-6.6155,-6.6096,-6.6252,-6.6177,-6.619,-6.6248,-6.6271,-6.6289,-6.6285,-6.6004,0,0,0,0,0,-6.6037,-6.6086,-6.6077,-6.6166,-6.6176,-6.6153,-6.6176,-6.6149,-6.6162,-6.6168,-6.6164,-6.6178,-6.6218,-6.6245,-6.6282,-6.6389,-6.6387,-6.6441,-6.6459,-6.6474,-6.6485,-6.6539,-6.6561,-6.632,-6.632,-6.632,0,0,-6.6109,-6.6111,-6.6144,-6.6187,-6.6196,-6.6245,-6.6158,-6.6215,-6.6251,-6.6176,-6.6251,-6.6249,-6.6262,-6.6356,-6.6397,-6.6359,-6.6552,-6.6487,-6.65,-6.6502,-6.6552,-6.6575,-6.6595,-6.6327,-6.6326,-6.6325,0,0,-6.6264,-6.6272,-6.6346,-6.6357,-6.6371,-6.6355,-6.6373,-6.6375,-6.6371,-6.6446,-6.639,-6.6433,-6.6503,-6.6514,-6.6529,-6.6689,-6.6643,-6.6703,-6.6796,-6.6849,-6.6868,-6.6885,-6.6938,-6.6958,-6.6715,-6.6715,-6.6715,0,-6.635,-6.6424,-6.6389,-6.6449,-6.6468,-6.6405,-6.6479,-6.6491,-6.6516,-6.653,-6.6488,-6.6574,-6.6579,-6.6673,-6.6712,-6.6728,-6.6745,-6.6699,-6.6869,-6.6885,-6.69,-6.695,-6.6971,-6.6722,-6.6721,-6.672,-6.672,0,-6.6528,-6.658,-6.6638,-6.6664,-6.6691,-6.6758,-6.6731,-6.6763,-6.6734,-6.6722,-6.6798,-6.6802,-6.6837,-6.6858,-6.6831,-6.6948,-6.6923,-6.6876,-6.6798,-6.693,-6.6976,-6.6996,-6.6731,-6.6729,-6.6727,-6.6725,0,0,-6.6746,-6.6752,-6.6774,-6.6784,-6.6796,-6.6834,-6.6898,-6.6933,-6.6959,-6.698,-6.7029,-6.7092,-6.7047,-6.7064,-6.7038,-6.7086,-6.7208,-6.7032,-6.7031,-6.706,-6.7333,-6.7366,-6.7389,-6.718,-6.7183,-6.7186,-6.7331,0,-6.6895,-6.7003,-6.6974,-6.7082,-6.7127,-6.7069,-6.7124,-6.7137,-6.7128,-6.7165,-6.7156,-6.7199,-6.7139,-6.7149,-6.7194,-6.7184,-6.7261,-6.7174,-6.7223,-6.7225,-6.7216,-6.7413,-6.7448,-6.7584,-6.7349,-6.7352,-6.7355,0,-6.7082,-6.7109,-6.7222,-6.7225,-6.7243,-6.7293,-6.7321,-6.7359,-6.7372,-6.7362,-6.7382,-6.7346,-6.7407,-6.7333,-6.7415,-6.7356,-6.7375,-6.7374,-6.7378,-6.7378,-6.7294,-6.7414,-6.7627,-6.7646,-6.7384,-6.7381,-6.7379,0,-6.7224,-6.729,-6.7365,-6.7376,-6.7382,-6.7418,-6.7422,-6.7431,-6.7453,-6.7479,-6.7492,-6.7525,-6.7542,-6.7568,-6.7541,-6.749,-6.7626,-6.7551,-6.7617,-6.7618,-6.7644,-6.7642,-6.7859,-6.7665,-6.7665,-6.7665,-6.7664,0,-6.7391,-6.7461,-6.7428,-6.7474,-6.755,-6.7517,-6.7593,-6.759,-6.7599,-6.7642,-6.7595,-6.7636,-6.7601,-6.7639,-6.7619,-6.7688,-6.7697,-6.7689,-6.7682,-6.7691,-6.7691,-6.7699,-6.7687,-6.767,-6.7669,-6.7668,-6.7667,0,-6.756,-6.7542,-6.7619,-6.7619,-6.7621,-6.7677,-6.7676,-6.7717,-6.7706,-6.7761,-6.7772,-6.7755,-6.7797,-6.7774,-6.7818,-6.7804,-6.7893,-6.7876,-6.7888,-6.7882,-6.7947,-6.794,-6.8173,-6.82,-6.7994,-6.7996,-6.7997,0,-6.7666,-6.7718,-6.7724,-6.7749,-6.7757,-6.7799,-6.7822,-6.7791,-6.7816,-6.7835,-6.7874,-6.7912,-6.794,-6.8011,-6.8001,-6.8034,-6.8014,-6.8093,-6.8018,-6.8024,-6.801,-6.8005,-6.8008,-6.8107,-6.8109,-6.8111,-6.8113,0,-6.7853,-6.7841,-6.7876,-6.7907,-6.7935,-6.7959,-6.7978,-6.8002,-6.7971,-6.8002,-6.8044,-6.8067,-6.8112,-6.8149,-6.8177,-6.818,-6.8141,-6.8138,-6.8154,-6.816,-6.8164,-6.8158,-6.7924,-6.8131,-6.8129,-6.8128,-6.8127,-6.8126,-6.799,-6.8033,-6.8043,-6.8083,-6.8094,-6.8113,-6.8152,-6.8146,-6.8181,-6.8214,-6.8195,-6.8244,-6.8255,-6.8289,-6.8298,-6.8335,-6.8303,-6.8327,-6.8333,-6.8338,-6.8345,-6.8162,-6.8341,-6.834,-6.834,-6.8339,-6.8339,0,-6.8171,-6.8175,-6.8213,-6.824,-6.8271,-6.8234,-6.8253,-6.8281,-6.8325,-6.8339,-6.8368,-6.8416,-6.8453,-6.8447,-6.848,-6.8511,-6.8493,-6.852,-6.8515,-6.8515,-6.8374,-6.8354,-6.8533,-6.8533,-6.8533,-6.8533,-6.8533,-6.8533,-6.8269,-6.8338,-6.8328,-6.8402,-6.8405,-6.8453,-6.8467,-6.8484,-6.8494,-6.855,-6.858,-6.8577,-6.8582,-6.8615,-6.8646,-6.8643,-6.8655,-6.8688,-6.8678,-6.8545,-6.8526,-6.8507,-6.8488,-6.8692,-6.8692,-6.8816,-6.8817,-6.8818]},{"header":{"parameterUnit":"m.s-1","parameterCategory":1,"la1":30.2991,"la2":30.254,"lo1":-89.0895,"lo2":-89.0444,"dy":0.0017,"dx":0.0017,"nx":28,"ny":28,"refTime":"2024-04-28T09:00:00:Z","depth":0,"parameterNumber":3,"parameterNumberName":"V-component_of_WINDS"},"data":[0,0,0,0,0,0,0,0,0,0,0,0,0,0,0,0,0,0,0,0,0,0,0,0,0,0,0,0,0,0,0,0,0,0,0,0,0,0,0,0,0,0,0,0,0,0,0,0,0,0,0,0,0,0,0,0,0,0,4.6776,4.6776,0,4.6807,4.6807,4.6807,4.6761,4.6759,4.6758,4.6756,4.6785,4.6787,4.6789,0,0,0,0,0,0,0,0,0,0,0,0,0,4.6673,4.6675,4.6775,4.6776,4.6776,4.6807,4.6807,4.6807,4.6761,4.6759,4.6757,4.6755,4.6784,4.6786,4.6789,0,0,0,0,0,0,0,0,0,0,0,0,0,4.6712,4.6676,4.6775,4.6757,4.6756,4.6807,4.6807,4.6808,4.6761,4.6759,4.6757,4.6754,4.6783,4.6786,4.679,4.6859,0,0,4.68,4.6801,0,0,0,0,0,0,0,0,4.671,4.6716,4.6759,4.6758,4.6757,4.6777,4.6781,4.6825,4.6762,4.6759,4.6756,4.6753,4.6784,4.6787,4.6798,4.686,4.6862,4.68,4.6802,4.6804,4.6805,0,0,0,0,0,0,0,4.6708,4.6715,4.6788,4.676,4.6758,4.6746,4.6749,4.6789,4.6785,4.6759,4.6756,4.676,4.6783,4.6795,4.6798,4.6862,4.68,4.6803,4.6805,4.6807,4.6983,4.6985,0,0,0,0,0,0,4.6708,4.6713,4.6787,4.6789,4.6727,4.675,4.6753,4.6773,4.6784,4.6783,4.6762,4.6758,4.679,4.6795,4.6799,4.688,4.6804,4.6807,4.6809,4.698,4.6983,4.6986,0,0,0,0,0,0,4.6706,4.6715,4.6785,4.675,4.6758,4.6754,4.6777,4.6775,4.6787,4.6787,4.6785,4.6776,4.6789,4.6794,4.6845,4.6881,4.6808,4.6812,4.6977,4.6981,4.6985,4.7044,0,0,0,0,0,0,4.6703,4.6714,4.6741,4.6751,4.676,4.6831,4.6779,4.6777,4.6794,4.6788,4.6799,4.6798,4.6787,4.684,4.6848,4.6884,4.6814,4.6974,4.6979,4.6983,4.7039,4.705,4.7059,0,0,0,0,0,4.6699,4.6756,4.6743,4.6752,4.6794,4.6833,4.6838,4.6825,4.6797,4.6823,4.6823,4.6798,4.6876,4.6845,4.6854,4.6892,4.6971,4.6977,4.6983,4.7034,4.7047,4.7059,0,0,0,0,0,0,4.6748,4.6757,4.6742,4.6804,4.6818,4.6825,4.6858,4.684,4.6862,4.6856,4.6838,4.6841,4.6895,4.6899,4.6864,4.696,4.6919,4.6927,4.6955,4.6967,4.6977,4.6974,4.6817,0,0,0,0,0,4.6767,4.68,4.6805,4.6858,4.6867,4.6862,4.6878,4.6867,4.6881,4.6887,4.689,4.6904,4.6932,4.695,4.6976,4.704,4.7041,4.7071,4.7081,4.7089,4.7095,4.7129,4.7142,4.7006,4.7006,4.7005,0,0,4.6804,4.6813,4.6834,4.6868,4.6878,4.6912,4.6867,4.6904,4.6928,4.6892,4.6939,4.6943,4.6957,4.7015,4.704,4.702,4.7133,4.7096,4.7103,4.7105,4.7136,4.7149,4.716,4.701,4.7009,4.7008,0,0,4.6889,4.69,4.6945,4.6957,4.6974,4.697,4.6981,4.6992,4.6993,4.7041,4.7015,4.7043,4.7091,4.7102,4.7114,4.7206,4.7183,4.7215,4.7266,4.7299,4.7309,4.7319,4.735,4.7361,4.7222,4.7222,4.7222,0,4.6933,4.6983,4.6971,4.701,4.7025,4.6997,4.7042,4.7054,4.7077,4.7088,4.7066,4.7126,4.7133,4.7193,4.7215,4.7227,4.7238,4.7212,4.7309,4.7318,4.7327,4.7356,4.7368,4.7225,4.7225,4.7225,4.7224,0,4.7035,4.7071,4.7105,4.713,4.715,4.7192,4.7186,4.7207,4.7195,4.7194,4.7243,4.7252,4.7278,4.7292,4.728,4.735,4.7337,4.7312,4.727,4.7344,4.7371,4.7382,4.723,4.7229,4.7228,4.7227,0,0,4.7149,4.7169,4.7181,4.7192,4.7209,4.7236,4.7277,4.7304,4.7322,4.734,4.7373,4.7416,4.7393,4.7407,4.7397,4.7426,4.7496,4.7398,4.7398,4.7414,4.7572,4.7589,4.7602,4.7483,4.7485,4.7487,4.757,0,4.7232,4.7304,4.7295,4.7363,4.7395,4.7369,4.7405,4.7419,4.742,4.7446,4.7446,4.7476,4.7445,4.7453,4.7481,4.7482,4.7527,4.7476,4.7511,4.7513,4.7506,4.7617,4.7634,4.7713,4.7581,4.7583,4.7584,0,4.7338,4.7361,4.7433,4.7446,4.7459,4.7491,4.7515,4.7542,4.7557,4.7555,4.7572,4.7557,4.7597,4.7557,4.7611,4.7576,4.7591,4.7594,4.7596,4.7597,4.7551,4.7618,4.7738,4.7749,4.7601,4.76,4.7599,0,4.7412,4.7461,4.751,4.7521,4.7537,4.756,4.7568,4.7581,4.7599,4.762,4.7631,4.7657,4.767,4.769,4.7682,4.7654,4.7738,4.7697,4.7736,4.7736,4.7752,4.7751,4.7874,4.7766,4.7766,4.7766,4.7765,0,4.7504,4.7549,4.7544,4.7573,4.7622,4.7612,4.7661,4.7665,4.7677,4.7707,4.7687,4.7715,4.7704,4.7731,4.7725,4.7771,4.7777,4.7776,4.7773,4.7777,4.7776,4.7784,4.7777,4.7769,4.7768,4.7767,4.7767,0,4.7594,4.7592,4.7644,4.7656,4.766,4.7696,4.7706,4.7733,4.7734,4.7771,4.778,4.7779,4.781,4.7805,4.7839,4.7835,4.7892,4.7883,4.7886,4.7884,4.7922,4.7918,4.8052,4.8068,4.7952,4.7953,4.7954,0,4.7652,4.7685,4.7702,4.7721,4.7731,4.7762,4.778,4.7772,4.7791,4.7812,4.7837,4.7867,4.7889,4.794,4.7942,4.7968,4.7959,4.8005,4.7963,4.7965,4.7958,4.7955,4.7958,4.8012,4.8013,4.8014,4.8015,0,4.7754,4.7752,4.7779,4.7807,4.7829,4.785,4.7868,4.7885,4.7878,4.7901,4.7933,4.7952,4.7987,4.8017,4.8041,4.8048,4.803,4.8029,4.8039,4.8041,4.8041,4.804,4.7907,4.8025,4.8024,4.8023,4.8023,4.8023,4.7828,4.7857,4.7873,4.7904,4.7918,4.7936,4.7963,4.7967,4.7994,4.8023,4.8017,4.8053,4.8068,4.8099,4.8109,4.8137,4.812,4.8135,4.8138,4.8142,4.8146,4.8039,4.8142,4.8141,4.8141,4.8141,4.8141,0,4.7928,4.7938,4.7967,4.7994,4.8019,4.8002,4.8022,4.8043,4.8076,4.8092,4.8116,4.8153,4.8181,4.8187,4.8214,4.8235,4.8227,4.8242,4.8239,4.8241,4.816,4.8148,4.8247,4.8247,4.8247,4.8247,4.8247,4.8247,4.7983,4.803,4.803,4.8084,4.8093,4.813,4.8143,4.8159,4.8172,4.8214,4.8239,4.8243,4.8254,4.8282,4.8307,4.8308,4.8318,4.8336,4.8333,4.8257,4.8246,4.8236,4.8224,4.8339,4.8339,4.8411,4.8412,4.8412]}]]